Weather History for Atlanta Fulton, GA

Change the Weather History Date:

Thursday, February 13, 2014

  Actual Average Record
Temperature  
Mean Temperature 38 °F 46 °F  
Max Temperature 46 °F 57 °F 64 °F (2009)
Min Temperature 30 °F 35 °F 25 °F (2006)
Degree Days  
Heating Degree Days 27 19  
Month to date heating degree days 294 262  
Since 1 July heating degree days 2328 2078  
Moisture  
Dew Point 29 °F    
Average Humidity 65    
Maximum Humidity 92    
Minimum Humidity 37    
Precipitation  
Precipitation 0.02 in 0.18 in 2.41 in (1966)
Month to date precipitation 2.14 2.12  
Year to date precipitation 4.74 6.39  
Snow  
Snow 0.00 in - - ()
Month to date snowfall 0.0  
Since 1 July snowfall T  
Snow Depth 0.00 in    
Sea Level Pressure  
Sea Level Pressure 29.80 in    
Wind  
Wind Speed 7 mph (WNW)    
Max Wind Speed 20 mph    
Max Gust Speed 28 mph    
Visibility 6 miles    
Events Snow    
T = Trace of Precipitation, MM = Missing Value Source: NWS Daily Summary

Daily Weather History Graph

Daily Weather History Graph

Search for Another Location

Airport:

Trip Planner

Search our weather history database for the weather conditions in past years. The results will help you decide how hot, cold, wet, or windy it might be!

Date:

Astronomy

Feb. 13, 2014 Rise Set
Actual Time 7:24 AM EST 6:20 PM EST
Civil Twilight 6:58 AM EST 6:46 PM EST
Nautical Twilight 6:29 AM EST 7:15 PM EST
Astronomical Twilight 6:00 AM EST 7:44 PM EST
Moon 5:28 PM EST (2/13) 6:16 AM EST (2/13)
Length of Visible Light 11h 47m
Length of Day
10h 56m
Waxing Gibbous, 98% of the Moon is Illuminated
Feb 13
Waxing Gibbous
Feb 14
Full
Feb 22
Last Quarter
Mar 1
New
Mar 8
First Quarter

Hourly Weather History & Observations

Time (EST) Temp. Windchill Dew Point Humidity Pressure Visibility Wind Dir Wind Speed Gust Speed Precip Events Conditions
12:33 AM 30.2 °F 25.4 °F 28.4 °F 93% 29.79 in 1.8 mi NNE 4.6 mph - 0.00 in Snow Light Snow
12:53 AM 30.0 °F - 28.0 °F 92% 29.81 in 1.5 mi Calm Calm - 0.00 in Snow Light Snow
1:22 AM 30.2 °F - 28.4 °F 93% 29.78 in 2.0 mi Calm Calm - 0.00 in Snow Light Snow
1:48 AM 30.2 °F - 28.4 °F 93% 29.77 in 2.5 mi Calm Calm - 0.01 in Snow Light Snow
1:53 AM 30.0 °F - 28.9 °F 96% 29.79 in 2.5 mi Calm Calm - 0.01 in Snow Light Snow
2:19 AM 30.2 °F - 28.4 °F 93% 29.77 in 4.0 mi Calm Calm - 0.00 in Snow Light Snow
2:40 AM 30.2 °F 26.7 °F 28.4 °F 93% 29.77 in 3.0 mi NNW 3.5 mph - 0.00 in Snow Light Snow
2:53 AM 30.0 °F 26.5 °F 28.0 °F 92% 29.79 in 3.0 mi NW 3.5 mph - 0.00 in Snow Light Snow
3:12 AM 30.2 °F 26.7 °F 28.4 °F 93% 29.76 in 4.0 mi West 3.5 mph - 0.00 in Snow Light Snow
3:22 AM 30.2 °F 26.7 °F 28.4 °F 93% 29.76 in 4.0 mi NW 3.5 mph - 0.00 in Snow Light Snow
3:32 AM 30.2 °F - 28.4 °F 93% 29.76 in 5.0 mi Calm Calm - 0.00 in Snow Light Snow
3:48 AM 30.2 °F - 28.4 °F 93% 29.76 in 5.0 mi Calm Calm - 0.00 in Snow Light Snow
3:53 AM 30.9 °F - 28.9 °F 92% 29.78 in 5.0 mi Calm Calm - 0.00 in Snow Light Snow
4:17 AM 30.2 °F 26.7 °F 28.4 °F 93% 29.75 in 5.0 mi West 3.5 mph - 0.00 in Snow Light Snow
4:53 AM 32.0 °F 26.4 °F 28.9 °F 88% 29.75 in 9.0 mi WNW 5.8 mph - 0.00 in   Overcast
5:53 AM 32.0 °F 23.0 °F 28.9 °F 88% 29.76 in 5.0 mi WNW 11.5 mph - 0.00 in Snow Light Snow
6:04 AM 32.0 °F 25.6 °F 30.2 °F 93% 29.75 in 2.5 mi WNW 6.9 mph - 0.00 in Snow Light Snow
6:18 AM 32.0 °F 27.5 °F 30.2 °F 93% 29.74 in 1.8 mi West 4.6 mph - 0.00 in Snow Light Snow
6:22 AM 32.0 °F 27.5 °F 30.2 °F 93% 29.74 in 2.0 mi WSW 4.6 mph - 0.00 in Snow Light Snow
6:49 AM 32.0 °F 28.7 °F 30.2 °F 93% 29.75 in 2.0 mi West 3.5 mph - 0.01 in Snow Light Snow
6:53 AM 32.0 °F 25.6 °F 30.0 °F 92% 29.77 in 2.0 mi West 6.9 mph - 0.01 in Snow Light Snow
7:53 AM 33.1 °F 26.9 °F 30.9 °F 92% 29.78 in 2.0 mi West 6.9 mph - 0.00 in Snow Light Snow
8:53 AM 34.0 °F 27.2 °F 30.9 °F 89% 29.80 in 8.0 mi WNW 8.1 mph 18.4 mph 0.00 in Snow Light Snow
9:53 AM 35.1 °F 27.4 °F 32.0 °F 89% 29.80 in 10.0 mi NW 10.4 mph - N/A   Overcast
10:53 AM 36.0 °F 27.1 °F 30.9 °F 82% 29.82 in 10.0 mi NW 13.8 mph 17.3 mph N/A   Mostly Cloudy
11:21 AM 37.4 °F 29.8 °F 32.0 °F 81% 29.81 in 10.0 mi NW 11.5 mph 23.0 mph N/A   Scattered Clouds
11:53 AM 39.0 °F 30.6 °F 32.0 °F 76% 29.82 in 10.0 mi WNW 15.0 mph 24.2 mph N/A   Clear
12:48 PM 39.2 °F 32.0 °F 33.8 °F 81% 29.81 in 10.0 mi WNW 11.5 mph 18.4 mph N/A   Mostly Cloudy
12:53 PM 39.0 °F 31.0 °F 33.1 °F 79% 29.83 in 10.0 mi WNW 13.8 mph 18.4 mph N/A   Mostly Cloudy
1:53 PM 39.9 °F 33.9 °F 32.0 °F 73% 29.82 in 10.0 mi WNW 9.2 mph 20.7 mph N/A   Overcast
2:53 PM 43.0 °F 37.7 °F 30.9 °F 62% 29.81 in 10.0 mi NW 9.2 mph 17.3 mph N/A   Scattered Clouds
3:53 PM 45.0 °F 40.1 °F 28.0 °F 52% 29.82 in 10.0 mi WNW 9.2 mph 17.3 mph N/A   Clear
4:53 PM 46.0 °F 41.0 °F 21.9 °F 39% 29.83 in 10.0 mi WNW 10.4 mph - N/A   Clear
5:53 PM 44.1 °F 38.6 °F 21.9 °F 42% 29.85 in 10.0 mi WNW 10.4 mph - N/A   Clear
6:53 PM 41.0 °F 38.0 °F 24.1 °F 51% 29.86 in 10.0 mi WSW 4.6 mph - N/A   Clear
7:53 PM 39.9 °F 36.7 °F 26.1 °F 58% 29.89 in 10.0 mi WSW 4.6 mph - N/A   Clear
8:53 PM 37.0 °F - 26.1 °F 65% 29.88 in 10.0 mi Calm Calm - N/A   Clear
9:53 PM 35.1 °F 31.0 °F 27.0 °F 72% 29.91 in 10.0 mi SW 4.6 mph - N/A   Clear
10:53 PM 33.1 °F - 27.0 °F 78% 29.91 in 10.0 mi Calm Calm - N/A   Clear
11:53 PM 30.9 °F - 28.0 °F 89% 29.91 in 10.0 mi Calm Calm - N/A   Clear